Вернуться в каталог

STARLINK-34522

АктивенСвязьVLEO
NORAD 64492·PAYLOAD·🇺🇸 United States

Запущен Jun 23, 2025 с Cape Canaveral Space Force Station

Loading…

Ближайшие Пролёты (ближайшие 24 часа)

TLE

СвежийSource: CelesTrak SupGP

Эпоха: Sep 14, 2026, 20:36 UTC

1 64492C 25133W   26257.85881944 -.00017723  00000+0 -52396-3 0  2574
2 64492  53.1589 312.3652 0001191  83.8288 224.2574 15.34380142    17

Отслеживайте STARLINK-34522 в реальном времени с AllMySat

Download on the App Store